Regional Weather Roundup
Issued by NWS Newport/Morehead, NC

Current Version | Previous Version | Graphics & Text | Print | Product List | Glossary Off
Versions: 1 2 3 4 5 6 7 8 9 10 11 12 13 14 15 16 17 18 19 20 21 22 23 24 25 26 27 28 29 30 31 32 33 34 35 36 37 38 39 40 41 42 43 44 45 46 47 48 49 50

000
ASUS42 KMHX 292312
RWRMHX
WEATHER ROUNDUP FOR EASTERN NORTH CAROLINA
NATIONAL WEATHER SERVICE NEWPORT/MOREHEAD CITY NC
700 PM EDT SUN MAR 29 2015

NOTE: "FAIR" INDICATES FEW OR NO CLOUDS BELOW 12,000 FEET
WITH NO SIGNIFICANT WEATHER AND/OR OBSTRUCTIONS TO VISIBILITY

NCZ015>017-031-032-045>047-102-103-300000-
NORTH COAST

CITY           SKY/WX    TMP DP  RH WIND       PRES   REMARKS
EDENTON        CLEAR     46  14  27 CALM      30.32S
ELIZABETH CITY CLEAR     44  13  28 SW3       30.31S
KITTY HAWK     CLEAR     37  21  50 CALM      30.31S
MANTEO         CLEAR     38  21  50 E5        30.32S

$$

NCZ045>047-081-094-103-104-300000-
CENTRAL COAST

CITY           SKY/WX    TMP DP  RH WIND       PRES   REMARKS
FRISCO         CLEAR     40  21  46 E5        30.34R
SWANQUARTER      N/A     46 N/A N/A NW5       30.30S

$$

NCZ095-097-098-100-101-300000-
SOUTHERN COAST

CITY           SKY/WX    TMP DP  RH WIND       PRES   REMARKS
BEAUFORT       CLEAR     47  16  29 NW8       30.35R
CEDAR ISLAND     N/A     45 N/A N/A W5        30.39R
JACKSONVILLE   CLEAR     48  12  23 W7        30.34S
PINEY ISLAND   CLEAR    N/A N/A N/A CALM      30.35R
WILMINGTON     CLEAR     48  24  39 S8        30.34S


$$

NCZ011>013-027>030-043-044-078>080-089-090>093-098-300000-
COASTAL PLAIN

CITY           SKY/WX    TMP DP  RH WIND       PRES   REMARKS
AHOSKIE        CLEAR     43  18  37 CALM      30.31F
CLINTON        CLEAR     50  16  26 CALM      30.33F
ELIZABETHTOWN  CLEAR     51  12  21 W3        30.33F
GOLDSBORO      CLEAR     49  16  27 SW7       30.30F
GREENVILLE     CLEAR     46  16  29 SW7       30.34R
HAVELOCK       CLEAR     47  12  24 W10       30.36R
KENANSVILLE    CLEAR     48  12  23 W3        30.35F
KINSTON        CLEAR     48  14  25 SW3       30.34F
NEW BERN       CLEAR     47  15  27 W8        30.35R
RICHLANDS      CLEAR     48  14  25 CALM      30.35F
ROCKY MOUNT    CLEAR     47  16  29 S5        30.31F
WASHINGTON     CLEAR     46  14  28 NW3       30.34S
WHITEVILLE     CLEAR     50  11  21 CALM      30.33F

$$

AMZ130-135-150-152-154-156-158-170-250-252-270-ANZ085-086-088-633-658-670-300000-
MARINE OBSERVATIONS

STATION/POSITION TIME  TEMP    WIND        PRES    WAVE   SWELL
                       AIR SEA DIR/SP/G            HT/PER HT/PER
                 (UTC) (F)     (DEG/KT/KT) (MB)    (FT/S) (FT/S)
CHESAPEAKE LIGHT 2200   37     340/  5/  5 1026.7
64 E VA BEACH    2250   39 54  320/ 16/ 19 1025.7    5/ 5   3/ 8
DUCK             2200   40 43   90/  5/  6 1025.8
2 E DUCK         2211      43                N/A     3/ 6
10 NE DUCK       NOT AVBL
OREGON INLET     2200   38 45   20/  7/  9 1026.7
HATTERAS CG      2200           10/  8/ 10 1027.0
CAPE LOOKOUT     2300   45     240/  3/  5 1027.6
BEAUFORT LAB     2200          340/  6/  8 1026.3
27 SE WRIGHTSVLE 2200   44 65  280/  2/  4 1029.3
5 SE WRIGHTSVLE  NOT AVBL
225 S CAPE HAT   2250   53 68  320/ 16/ 21 1027.0    6/ 7   3/ 8
41 SE CHARLESTON 2250   51 68   30/  8/ 12 1027.6    3/ 7   3/ 7

$$



USA.gov is the U.S. government's official web portal to all federal, state and local government web resources and services.